EW0822 Weather Reports


time (UTC)temp
C
wind
direction
speed
KPH
gust
KPH
rain 1hr
cm
rain 24hr
cm
rain mn
cm
humidity
%
barometer
mb
20260510110035 20 301 0.0 6.4 0.00 0.00 0.00 53 1011.2
20260510104533 19 229 0.0 6.4 0.00 0.00 0.00 53 1011.4
20260510103029 19 233 0.0 3.2 0.00 0.00 0.00 55 1011.6
20260510101527 19 251 0.0 0.0 0.00 0.00 0.00 54 1011.6
20260510100026 18 222 0.0 0.0 0.00 0.00 0.00 54 1011.8
20260510094536 18 224 0.0 3.2 0.00 0.00 0.00 56 1011.8
20260510093020 18 330 0.0 8.0 0.00 0.00 0.00 57 1012.1
20260510091516 18 205 3.2 11.3 0.00 0.00 0.00 58 1012.2
20260510090012 17 200 0.0 0.0 0.00 0.00 0.00 65 1012.2
20260510084517 17 235 0.0 1.6 0.00 0.00 0.00 69 1012.4
20260510083005 16 205 0.0 0.0 0.00 0.00 0.00 70 1012.6
20260510081601 16 271 0.0 0.0 0.00 0.00 0.00 71 1012.8
20260510080059 15 279 0.0 0.0 0.00 0.00 0.00 74 1012.8
20260510074554 15 360 0.0 0.0 0.00 0.00 0.00 74 1013.0
20260510073054 15 5 0.0 0.0 0.00 0.00 0.00 75 1013.0
20260510071545 14 5 0.0 0.0 0.00 0.00 0.00 76 1012.9
20260510070042 13 5 0.0 0.0 0.00 0.00 0.00 77 1012.9
20260510064540 13 5 0.0 0.0 0.00 0.00 0.00 77 1012.8
20260510063038 12 5 0.0 0.0 0.00 0.00 0.00 78 1012.8
20260510061535 12 5 0.0 0.0 0.00 0.00 0.00 77 1012.9
20260510060039 11 5 0.0 0.0 0.00 0.00 0.00 75 1012.9
20260510054535 11 5 0.0 0.0 0.00 0.00 0.00 74 1012.9
20260510053026 10 5 0.0 0.0 0.00 0.00 0.00 73 1013.0
20260510051523 9 5 0.0 0.0 0.00 0.00 0.00 73 1013.0
20260510050019 8 5 0.0 0.0 0.00 0.00 0.00 73 1013.2
20260510044515 8 5 0.0 0.0 0.00 0.00 0.00 74 1013.3
20260510043014 8 5 0.0 0.0 0.00 0.00 0.00 74 1013.3
20260510041510 8 5 0.0 0.0 0.00 0.00 0.00 74 1013.3
20260510040007 8 5 0.0 0.0 0.00 0.00 0.00 74 1013.3
20260510034513 8 5 0.0 0.0 0.00 0.00 0.00 74 1013.3
20260510033006 8 5 0.0 0.0 0.00 0.00 0.00 75 1013.3
20260510031507 9 5 0.0 0.0 0.00 0.00 0.00 74 1013.4
20260510030006 9 5 0.0 0.0 0.00 0.00 0.00 74 1013.4
20260510024600 9 5 0.0 0.0 0.00 0.00 0.00 74 1013.5
20260510024501 9 5 0.0 0.0 0.00 0.00 0.00 74 1013.5
20260510023058 9 5 0.0 0.0 0.00 0.00 0.00 74 1013.5
20260510021601 9 5 0.0 0.0 0.00 0.00 0.00 75 1013.8
20260510020056 9 5 0.0 0.0 0.00 0.00 0.00 75 1013.9
20260510014556 9 5 0.0 0.0 0.00 0.00 0.00 75 1013.9
20260510013053 9 5 0.0 0.0 0.00 0.00 0.00 76 1014.0
20260510011551 10 5 0.0 0.0 0.00 0.00 0.00 76 1013.9
20260510010049 10 5 0.0 0.0 0.00 0.00 0.00 77 1013.8
20260510004550 10 5 0.0 0.0 0.00 0.00 0.00 77 1013.9
20260510003047 10 5 0.0 0.0 0.00 0.00 0.00 77 1014.0
20260510001544 10 5 0.0 0.0 0.00 0.00 0.00 78 1014.0
20260510000044 11 5 0.0 0.0 0.00 0.00 0.00 78 1013.9
20260509234542 11 5 0.0 0.0 0.00 0.00 0.00 78 1014.0
20260509233038 11 5 0.0 0.0 0.00 0.00 0.00 78 1014.3
20260509231540 11 5 0.0 0.0 0.00 0.00 0.00 78 1014.3
20260509230032 11 5 0.0 0.0 0.00 0.00 0.00 78 1014.4
20260509224538 12 5 0.0 0.0 0.00 0.00 0.00 77 1014.6
20260509223031 12 5 0.0 0.0 0.00 0.00 0.00 78 1014.7
20260509221526 12 5 0.0 0.0 0.00 0.00 0.00 77 1014.7
20260509220028 12 5 0.0 0.0 0.00 0.00 0.00 76 1014.8
20260509214524 12 5 0.0 0.0 0.00 0.00 0.00 76 1014.8
20260509213024 12 5 0.0 0.0 0.00 0.00 0.00 74 1015.0
20260509211523 13 5 0.0 0.0 0.00 0.00 0.00 71 1015.0
20260509210030 13 5 0.0 0.0 0.00 0.00 0.00 69 1014.8
20260509204522 15 5 0.0 0.0 0.00 0.00 0.00 67 1015.0
20260509203033 15 5 0.0 0.0 0.00 0.00 0.00 62 1014.9
20260509201520 15 5 0.0 0.0 0.00 0.00 0.00 59 1014.9
20260509200021 16 5 0.0 0.0 0.00 0.00 0.00 57 1014.9
20260509194520 16 5 0.0 0.0 0.00 0.00 0.00 55 1014.7
20260509193019 17 5 0.0 0.0 0.00 0.00 0.00 53 1014.9
20260509191521 18 5 0.0 0.0 0.00 0.00 0.00 51 1014.7
20260509190019 18 5 0.0 0.0 0.00 0.00 0.00 49 1014.6
20260509184517 20 22 0.0 0.0 0.00 0.00 0.00 47 1014.4
20260509183017 21 22 0.0 0.0 0.00 0.00 0.00 42 1014.3
20260509181516 21 22 0.0 0.0 0.00 0.00 0.00 41 1014.2
20260509180015 21 22 0.0 0.0 0.00 0.00 0.00 39 1014.1
20260509174516 21 22 0.0 0.0 0.00 0.00 0.00 39 1014.0
20260509173018 21 22 0.0 0.0 0.00 0.00 0.00 40 1014.0
20260509171513 22 63 0.0 0.0 0.00 0.00 0.00 40 1014.0
20260509170014 21 57 0.0 0.0 0.00 0.00 0.00 39 1014.1
20260509164512 21 57 0.0 0.0 0.00 0.00 0.00 39 1014.2
20260509163009 22 47 0.0 4.8 0.00 0.00 0.00 37 1014.4
20260509161508 22 355 0.0 0.0 0.00 0.00 0.00 37 1014.4
20260509160008 22 325 0.0 0.0 0.00 0.00 0.00 37 1014.3
20260509154506 21 325 0.0 0.0 0.00 0.00 0.00 38 1014.6
20260509153006 21 314 0.0 0.0 0.00 0.00 0.00 38 1014.6
20260509151558 21 31 0.0 8.0 0.00 0.00 0.00 40 1014.8
20260509150057 20 17 0.0 0.0 0.00 0.00 0.00 42 1014.9
20260509144600 20 49 0.0 6.4 0.00 0.00 0.00 41 1015.0
20260509143056 20 198 0.0 0.0 0.00 0.00 0.00 41 1015.2
20260509141553 21 313 0.0 0.0 0.00 0.00 0.00 41 1015.3
20260509134544 20 53 0.0 0.0 0.00 0.00 0.00 44 1015.5
20260509133041 19 53 0.0 3.2 0.00 0.00 0.00 44 1015.8
20260509131543 19 221 0.0 0.0 0.00 0.00 0.00 45 1016.0
20260509130038 20 220 0.0 0.0 0.00 0.00 0.00 44 1016.2
20260509124536 20 360 0.0 0.0 0.00 0.00 0.00 43 1016.3
20260509123035 20 44 0.0 9.7 0.00 0.00 0.00 44 1016.4
20260509121534 20 36 0.0 4.8 0.00 0.00 0.00 44 1016.7
20260509120036 20 18 0.0 6.4 0.00 0.00 0.00 45 1016.8
20260509114527 19 338 0.0 0.0 0.00 0.00 0.00 45 1017.0
20260509113024 19 58 0.0 4.8 0.00 0.00 0.00 45 1017.1
20260509111523 20 171 0.0 0.0 0.00 0.00 0.00 43 1017.3